Location: Augsburg
(48.3836°N, 10.8929°E)
Time: 04:32:21
(UTC+01:00)

ISS - Pass Details

Date: 11 January 2018
Orbit: 401 x 406 km, 51.6° (Epoch: 17 January)

Event Time Altitude Azimuth Distance (km) Brightness Sun altitude
Exits shadow 05:42:28 46° 80° (E) 559 -2.8 -22.9°
Drops below altitude 10° 05:44:56 10° 100° (E) 1,464 0.1 -22.5°
Sets 05:47:02 0° 104° (ESE) 2,323 1.5 -22.2°
